sat.trackr.live / text

‹ back to catalog

STARLINK-35605

NORAD 66150 · 2025-240E

PAYLOAD ACTIVE UNKNOWN

§ Identity

Operator
Country
US
Launch date
2025-10-25
Launch site
AFWTR
Launch vehicle
Mass (kg)
RCS (m²)

Purposes: comms

External: N2YO · Heavens-Above · Gunter

§ Orbital elements

Epoch: 2026-05-25T04:57:14.936832Z

Period
94.11 min
Inclination
53.1564°
Eccentricity
0.0005379
Mean motion
15.30129326 rev/d
Perigee alt
471.7 km
Apogee alt
479.1 km
Semi-major
6,853.6 km
B*
-1.5490e-3
RAAN
67.3892°
Arg perigee
101.9803°
Mean anomaly
258.1801°
Rev number
3,370

§ Raw data

STARLINK-356051 66150U 25240E   26145.20642288 -.00045880  00000+0 -15490-2 0  99982 66150  53.1564  67.3892 0005379 101.9803 258.1801 15.30129326 33705

JSON: /api/v1/satellites/66150 · /tle

For live sub-satellite position, see the globe view (requires WebGL).

§ Visibility from observer

Set your observer location to see the next 7 days of passes ≥ 10°. The values pass through the URL so the page stays shareable.

No JS? Fill the form by hand. The geolocation button needs JavaScript.